Regional Weather Roundup
Issued by NWS Cleveland, OH

Home | Current Version | Previous Version | Text Only | Print | Product List | Glossary On
Versions: 1 2 3 4 5 6 7 8 9 10 11 12 13 14 15 16 17 18 19 20 21 22 23 24 25 26 27 28 29 30 31 32 33 34 35 36 37 38 39 40 41 42 43 44 45 46 47 48 49 50
000
ASUS41 KCLE 161710
RWRCLE
OHIO REGIONAL WEATHER ROUNDUP
NATIONAL WEATHER SERVICE WILMINGTON, OH
100 PM EDT TUE SEP 16 2014

NOTE: "FAIR" INDICATES FEW OR NO CLOUDS BELOW 12,000 FEET WITH NO
SIGNIFICANT WEATHER AND/OR OBSTRUCTIONS TO VISIBILITY.

OHZ001>008-015>018-024>027-034-035-043-044-161800-
   NORTHWEST OHIO

CITY           SKY/WX    TMP DP  RH WIND       PRES   REMARKS
DEFIANCE       PTSUNNY   63  46  54 N5        30.17F
FINDLAY        PTSUNNY   64  49  57 NE6       30.15F
TOLEDO EXPRESS PTSUNNY   61  46  57 NW6       30.16F
TOLEDO METCALF MOSUNNY   63  45  51 NW7       30.16F
LIMA           PTSUNNY   62  51  67 N3        30.16F
$$

OHZ009>014-019>023-028>033-038-089-161800-
   NORTHEAST OHIO

CITY           SKY/WX    TMP DP  RH WIND       PRES   REMARKS
CLE-HOPKINS    PTSUNNY   63  52  67 N10       30.15S
CLE-LAKEFRONT  CLOUDY    62  51  67 N7        30.12F
CUY CO. ARPT   PTSUNNY   63  54  72 N12       30.13F
LORAIN-ELYRIA  PTSUNNY   65  52  62 N9        30.14S
ASHTABULA      MOSUNNY   63  48  58 VRB3      30.13S
AKRON-CANTON   PTSUNNY   63  51  65 NW6       30.12F
WOOSTER        CLOUDY    64  52  64 N9        30.13F
MANSFIELD      CLOUDY    62  50  64 NW6G24    30.14F
YOUNGSTOWN     PTSUNNY   61  52  72 NW3       30.11F
$$

OHZ042-051>053-060>062-070>072-077>081-161800-
  SOUTHWEST OHIO

CITY           SKY/WX    TMP DP  RH WIND       PRES   REMARKS
CINC-COVINGTON CLOUDY    60  50  69 N5        30.16S
CINC-LUNKEN    PTSUNNY   62  52  69 NE7       30.17S
HAMILTON       CLOUDY    60  51  72 NE5       30.18F
DAYTON         CLOUDY    59  51  75 N7        30.18S
WRIGHT-PAT AFB CLOUDY    59  50  72 N6        30.17S
DAYTON GENERAL CLOUDY    59  51  75 N6        30.16F
WILMINGTON     CLOUDY    58  50  75 NE7       30.16S
$$

OHZ036-037-039>041-045>050-054>059-063>069-073>076-082>088-161800-
  CENTRAL AND SOUTHEAST OHIO

CITY           SKY/WX    TMP DP  RH WIND       PRES   REMARKS
COLUMBUS       CLOUDY    62  49  62 CALM      30.15S
OSU AIRPORT    CLOUDY    59  50  72 NW3       30.15F
BOLTON FIELD   CLOUDY    57  52  82 CALM      30.16F
RICKENBACK AFB CLOUDY    58  49  71 CALM      30.15F
NEWARK         CLOUDY    60  49  66 CALM      30.14F
MARION         CLOUDY    61  49  64 CALM      30.15F
LANCASTER      CLOUDY    61  51  70 VRB3      30.15F
ZANESVILLE     PTSUNNY   62  51  67 VRB7      30.14F
NEW PHILLY     MOSUNNY   63  53  70 CALM      30.13F
$$


USA.gov is the U.S. government's official web portal to all federal, state and local government web resources and services.